Live-Position
3D-Globus wird geladen...
Über Starlink 5454
Group: 3 satellites
Beschreibung wird geladen...
Nächste Überflüge
Passes for default location (London). Set your location on the main map for personalized predictions.
Höhenverlauf
Loading altitude history...
No altitude history available
Zweizeiliger Elementsatz
1 54774U 22175S 26126.05004822 -.00001435 00000-0 -72157-4 0 9993
2 54774 53.2146 131.2993 0001138 81.2259 278.8862 15.08822025188795
Epoch: 6. Mai 2026 •
Age: 9 hours
Aktueller Status
Höhe 551.8 km
Geschwindigkeit 7.59 km/s
Subsatellitenpunkt -35.87°S,
74.73°E
Startdatum 17. Dez. 2022
Alter 3.3 years
Typ internet
Startgruppe
Falcon 9 •
Group 4-37 •
49 satellites
Starlink 5464
54758
Starlink 5215 54759
Starlink 5220 54760
Starlink 5202 54761
Starlink 5214 54762
Starlink 5191 54763
Starlink 5458 54764
Starlink 5471 54766
Starlink 5472 54767
Starlink 5444 54768
Starlink 5448 54770
Starlink 5451 54771
Starlink 5452 54772
Starlink 5453 54773
Starlink 5465 54775
Starlink 5470 54776
Starlink 5468 54777
Starlink 5450 54778
Starlink 5447 54779
Starlink 5449 54780
...and 28 more
Technische Details
Klassifizierung Payload
Masse 305.00 kg
Trockenmasse 290.00 kg
Gesamtmasse 305.00 kg
Länge 0.20 m
Durchmesser 2.80 m
Spannweite 9.00 m
Form Box + pan
Hersteller SPXS
Bus-Typ Starlink
Phasenstatus In Orbit
Besitzer/Staat SPXS/US
Most Searched
Loading...